TimeEDT,TemperatureF,Dew PointF,Humidity,Sea Level PressureIn,VisibilityMPH,Wind Direction,Wind SpeedMPH,Gust SpeedMPH,PrecipitationIn,Events,Conditions,WindDirDegrees,DateUTC
12:54 AM,48.0,37.0,66,29.69,10.0,WSW,12.7,-,N/A,,Overcast,250,2012-11-02 04:54:00
1:54 AM,48.0,37.0,66,29.69,10.0,West,12.7,-,N/A,,Overcast,260,2012-11-02 05:54:00
2:54 AM,48.0,37.0,66,29.70,10.0,West,12.7,-,N/A,,Overcast,270,2012-11-02 06:54:00
3:54 AM,48.0,36.0,63,29.69,10.0,West,11.5,-,N/A,,Overcast,270,2012-11-02 07:54:00
4:54 AM,48.0,36.0,63,29.69,10.0,West,11.5,-,N/A,,Overcast,280,2012-11-02 08:54:00
5:54 AM,46.0,35.1,66,29.69,10.0,West,12.7,-,N/A,,Overcast,270,2012-11-02 09:54:00
6:54 AM,46.0,34.0,63,29.70,10.0,West,9.2,-,N/A,,Mostly Cloudy,260,2012-11-02 10:54:00
7:54 AM,45.0,33.1,63,29.71,10.0,West,9.2,-,N/A,,Mostly Cloudy,260,2012-11-02 11:54:00
8:54 AM,45.0,33.1,63,29.73,10.0,WSW,11.5,-,N/A,,Overcast,250,2012-11-02 12:54:00
9:54 AM,46.0,33.1,61,29.73,10.0,West,10.4,-,N/A,,Overcast,270,2012-11-02 13:54:00
10:54 AM,48.0,33.1,56,29.73,10.0,WNW,12.7,-,N/A,,Mostly Cloudy,290,2012-11-02 14:54:00
11:54 AM,50.0,33.1,52,29.72,10.0,WNW,16.1,-,N/A,,Mostly Cloudy,290,2012-11-02 15:54:00
12:54 PM,50.0,32.0,50,29.71,10.0,West,15.0,-,N/A,,Overcast,280,2012-11-02 16:54:00
1:54 PM,50.0,32.0,50,29.70,10.0,West,17.3,21.9,N/A,,Mostly Cloudy,280,2012-11-02 17:54:00
2:54 PM,50.0,32.0,50,29.70,10.0,WNW,17.3,24.2,N/A,,Mostly Cloudy,290,2012-11-02 18:54:00
3:54 PM,50.0,33.1,52,29.72,10.0,West,13.8,-,N/A,,Overcast,280,2012-11-02 19:54:00
4:54 PM,48.9,35.1,59,29.73,10.0,WNW,12.7,17.3,0.00,,Overcast,300,2012-11-02 20:54:00
5:54 PM,50.0,33.1,52,29.75,10.0,West,9.2,-,N/A,,Overcast,280,2012-11-02 21:54:00
6:54 PM,48.9,33.1,54,29.78,10.0,NW,10.4,-,N/A,,Overcast,310,2012-11-02 22:54:00
7:54 PM,46.9,35.1,63,29.82,10.0,NW,21.9,28.8,0.00,Rain,Light Rain,310,2012-11-02 23:54:00
8:54 PM,46.0,35.1,66,29.83,10.0,WNW,11.5,18.4,0.00,,Overcast,290,2012-11-03 00:54:00
9:54 PM,46.9,33.1,59,29.84,10.0,WNW,10.4,-,N/A,,Overcast,290,2012-11-03 01:54:00
11:54 PM,45.0,32.0,60,29.86,10.0,WNW,9.2,-,N/A,,Scattered Clouds,290,2012-11-03 03:54:00